Tracking 19846 objects as of 18-Sep-2019
HD Live streaming from Space Station
objects crossing your sky now

IRIDIUM 44

Track IRIDIUM 44 now!
10-day predictions
IRIDIUM 44 is classified as:


NORAD ID: 25078
Int'l Code: 1997-077B
Perigee: 768.5 km
Apogee: 774.3 km
Inclination: 86.4 °
Period: 100.1 minutes
Semi major axis: 7142 km
RCS: 3.743 m2 (large)
Launch date: December 8, 1997
Source: United States (US)
Launch site: Taiyaun Space Center, China (TSC)
aabbcc
Your satellite tracking list
Your tracking list is empty




NASA's NSSDC Master Catalog

Two Line Element Set (TLE):
1 25078U 97077B   19261.43259691  .00000104  00000-0  27526-4 0  9991
2 25078  86.3997  25.1559 0004069  88.0733 272.0931 14.38266154141955
Source of the keplerian elements: AFSPC